Volver al catálogo

SYRACUSE 3B

ActivoMilitarGEO
NORAD 29273·PAYLOAD·🇫🇷 France

Lanzado Aug 11, 2006 desde Guiana Space Centre

Loading…

TLE

ActualizadoSource: Space-Track

Época: Sep 14, 2026, 10:12 UTC

1 29273U 06033B   26257.42562450 -.00000208  00000-0  00000-0 0  9996
2 29273   3.1347  79.0463 0000277  25.9785   6.8071  0.98628725 73542

Sigue SYRACUSE 3B en tiempo real con AllMySat

Download on the App Store